Tracking 19832 objects as of 25-Aug-2019
HD Live streaming from Space Station
objects crossing your sky now

COSMOS 2251 DEB

Track COSMOS 2251 DEB now!
10-day predictions


NORAD ID: 35831
Int'l Code: 1993-036ATD
Perigee: 717.4 km
Apogee: 771.5 km
Inclination: 74.0 °
Period: 99.6 minutes
Semi major axis: 7115 km
RCS: 0.007 m2 (small)
Launch date: June 16, 1993
Source: Commonwealth of Independent States (former USSR) (CIS)
Launch site: PLESETSK MISSILE AND SPACE COMPLEX (PKMTR)

Note: This is SATELLITE DEBRIS
aabbcc
Your satellite tracking list
Your tracking list is empty




NASA's NSSDC Master Catalog

Two Line Element Set (TLE):
1 35831U 93036ATD 19236.13203711 +.00001064 +00000-0 +30096-3 0  9992
2 35831 074.0128 155.0071 0038069 052.4038 308.0566 14.46435294267062
Source of the keplerian elements: AFSPC